#timestamp,LO_Frequency,Hit,StdDev 
1505548815.7,286046998.0,N
1505548835.5,286046994.9,N
1505548855.4,286046994.7,N
1505548875.2,286046994.1,N
1505548895.0,286046996.1,N
1505548895.9,286046996.1,N
1505548915.8,286046995.6,N
1505548935.6,286046997.9,N
1505548955.4,286046998.7,N
1505548975.3,286046993.7,N
1505548995.1,286046996.6,N
1505548996.0,286046996.6,N
1505549015.8,286046998.3,N
1505549035.7,286046994.9,N
1505549055.5,286046993.3,Y
1505549075.3,286046999.5,P
1505549095.2,286047001.1,N
1505549115.9,286047003.6,N
1505549135.7,286047002.8,N
1505549155.6,286047002.4,N
1505549175.4,286047000.3,N
1505549195.2,286046995.6,N
1505549215.0,286046995.5,N
1505549215.9,286046995.5,N
1505549235.8,286046995.1,N
1505549255.6,286046999.1,N
1505549275.4,286046998.5,N
1505549295.3,286046996.2,N
1505549315.1,286046998.8,N
1505549335.8,286046996.6,N
1505549355.7,286046995.6,N
1505549375.5,286046999.4,N
1505549395.3,286046996.5,N
1505549415.2,286046997.9,N
1505549435.9,286046997.0,N
1505549455.7,286046998.9,N
1505549475.6,286046998.9,N
1505549495.4,286046999.9,N
1505549515.2,286047002.6,N
1505549535.0,286046998.3,N
1505549535.9,286046998.3,N
1505549555.8,286046997.3,N
1505549575.6,286046998.1,N
1505549595.4,286046999.8,N
1505549615.3,286046999.8,N
1505549635.1,286047000.2,N
1505549636.0,286047000.2,N
1505549655.8,286046999.2,N
1505549675.7,286046997.8,N
1505549695.5,286046996.7,N
1505549715.3,286046995.6,N
1505549735.2,286046998.4,N
1505549755.9,286046999.4,N
1505549775.7,286046996.7,N
1505549795.6,286046999.5,N
1505549815.4,286047000.8,N
1505549835.2,286046997.1,N
1505549855.0,286046999.2,N
1505549856.0,286046999.2,N
1505549875.8,286046997.0,N
1505549895.6,286046992.6,Y
1505549915.5,286046996.2,P
1505549935.3,286046998.6,N
1505549955.1,286046996.9,N
1505549975.8,286047001.0,N
1505549995.7,286047004.0,N
1505550015.5,286046998.6,N
1505550035.3,286046998.0,N
1505550055.2,286046995.5,N
1505550075.9,286046995.1,N
1505550095.7,286046993.6,N
1505550115.6,286046993.7,N
1505550135.4,286046993.8,N
1505550155.2,286046995.6,N
1505550175.1,286046996.9,N
1505550176.0,286046996.9,N
1505550195.8,286047002.8,N
1505550215.6,286047001.2,N
1505550235.4,286046997.0,N
1505550255.3,286046998.7,N
1505550275.1,286047000.7,N
1505550295.8,286047000.7,N
1505550315.7,286046997.0,N
1505550335.5,286046999.2,N
1505550355.3,286046998.3,N
1505550375.2,286046997.2,N
1505550395.9,286046998.7,N
1505550415.7,286046998.5,N
1505550435.6,286047000.9,N
1505550455.4,286046998.8,N
1505550475.2,286047002.7,N
1505550495.1,286046998.7,N
1505550496.0,286046998.7,N
1505550515.8,286046999.6,N
1505550535.6,286046995.0,N
1505550555.4,286046998.2,N
1505550575.3,286046997.2,N
1505550595.1,286046999.0,N
1505550615.8,286046998.6,N
1505550635.7,286046998.6,N
1505550655.5,286047001.9,N
1505550675.3,286047003.9,N
1505550695.2,286046999.8,N
1505550715.9,286047000.0,N
1505550735.7,286047000.2,N
1505550755.6,286047007.2,Y
1505550775.4,286047005.6,P
1505550795.2,286047004.0,N
1505550815.1,286047004.0,N
1505550816.0,286047004.0,N
1505550835.8,286047001.7,N
1505550855.6,286047002.8,N
1505550875.5,286047000.5,N
1505550895.3,286046999.2,N
1505550915.1,286046998.9,N
1505550935.9,286047000.5,N
1505550955.7,286047000.1,N
1505550975.5,286046998.2,N
1505550995.4,286047002.8,N
1505551015.2,286047003.8,N
1505551035.0,286047005.8,N
1505551035.9,286047005.8,N
1505551055.7,286047004.4,N
1505551075.6,286047002.8,N
1505551095.4,286046998.7,N
1505551115.2,286046999.3,N
1505551135.1,286046996.6,N
1505551136.0,286046996.6,N
1505551155.8,286046999.0,N
1505551175.6,286046998.7,N
1505551195.5,286046999.5,N
1505551215.3,286046998.2,N
1505551235.1,286046998.1,N
1505551255.9,286046999.6,N
1505551275.7,286046999.2,N
1505551295.5,286047000.6,N
1505551315.4,286047002.7,N
1505551335.2,286047005.1,N
1505551355.0,286047001.5,N
1505551355.9,286047001.5,N
1505551375.7,286047003.8,N
1505551395.6,286047000.5,N
1505551415.4,286047001.5,N
1505551435.2,286047001.9,N
1505551455.1,286047000.1,N
1505551456.0,286047000.1,N
1505551475.8,286047002.1,N
1505551495.6,286047000.1,N
1505551515.5,286046998.5,N
1505551535.3,286047000.1,N
1505551555.1,286047002.8,N
1505551575.9,286046996.7,N
1505551595.7,286046996.7,N
1505551615.5,286046998.8,N
1505551635.4,286047001.9,N
1505551655.2,286047001.3,N
1505551675.0,286046999.4,N
1505551675.9,286046999.4,N
1505551695.8,286046998.7,N
1505551715.6,286047000.4,N
1505551735.4,286047000.1,N
1505551755.3,286046999.3,N
1505551775.1,286047001.0,N
1505551776.0,286047001.0,N
1505551795.8,286046999.0,N
1505551815.6,286047002.8,N
1505551835.5,286046997.2,N
1505551855.3,286046997.5,N
1505551875.1,286046997.4,N
1505551895.9,286046995.3,N
1505551915.7,286046996.1,N
1505551935.5,286046993.3,Y
1505551955.4,286046993.5,P
1505551975.2,286046993.4,N
1505551995.0,286046999.1,N
1505551995.9,286046999.1,N
1505552015.8,286047001.0,N
1505552035.6,286047002.7,N
1505552055.4,286047001.5,N
1505552075.3,286046998.1,N
1505552095.1,286046999.9,N
1505552096.0,286046999.9,N
1505552115.8,286046998.5,N
1505552135.7,286046995.4,N
1505552155.5,286046996.3,N
1505552175.3,286046996.1,N
1505552195.2,286046997.5,N
1505552215.9,286046997.3,N
1505552235.7,286046997.7,N
1505552255.5,286046999.2,N
1505552275.4,286046997.4,N
1505552295.2,286046999.1,N
1505552315.0,286046998.7,N
1505552315.9,286046998.7,N
1505552335.8,286047001.9,N
1505552355.6,286046999.4,N
1505552375.4,286046997.7,N
1505552395.3,286046996.9,N
